Regional Weather Roundup
Issued by NWS Upton, NY

Home | Current Version | Previous Version | Text Only | Print | Product List | Glossary On
Versions: 1 2 3 4 5 6 7 8 9 10 11 12 13 14 15 16 17 18 19 20 21 22 23 24 25 26 27 28
000
ASUS41 KOKX 241025
RWROKX

REGIONAL WEATHER ROUNDUP
NATIONAL WEATHER SERVICE NEW YORK NY
600 AM EDT WED MAY 24 2017

NOTE: "FAIR" INDICATES FEW OR NO CLOUDS BELOW 12,000 FEET WITH NO
SIGNIFICANT WEATHER AND/OR OBSTRUCTIONS TO VISIBILITY.

NYZ071-072-176-178-NJZ106-104-241100-
NEW YORK CITY METRO AREA

CITY           SKY/WX    TMP DP  RH WIND       PRES   REMARKS
CENTRAL PARK   CLOUDY    56  54  93 VRB3      29.76R
WALL ST HELIPT CLOUDY    57  54  88           29.74R
BRONX BOT GARD   N/A     55  52  88 CALM      29.73S
LAGUARDIA APRT LGT RAIN  58  53  84 E5        29.72S
KENNEDY INTL   CLOUDY    57  56  96 N5        29.73F
BREEZY POINT     N/A     55 N/A N/A NE2         N/A
NEWARK/LIBERTY LGT RAIN  58  53  84 CALM      29.74R
TETERBORO      LGT RAIN  58  52  80 CALM      29.73R
$$

NYZ177-179-078>081-241100-
LONG ISLAND NEW YORK

CITY           SKY/WX    TMP DP  RH WIND       PRES   REMARKS
JONES BEACH      N/A     55 N/A N/A E9          N/A
MATINECOCK PT  NOT AVBL
FARMINGDALE    LGT RAIN  56  54  93 E6        29.72F
MACARTHUR/ISP  LGT RAIN  55  55 100 NE6       29.72F
SHIRLEY        LGT RAIN  55  55 100 CALM      29.73F
MT SINAI HARB    N/A     55 N/A N/A CALM        N/A
WESTHAMPTON    LGT RAIN  55  52  89 NE7       29.74F
EAST HAMPTON   LGT RAIN  54  52  94 CALM      29.74F
MONTAUK          N/A     55  53  93 E5        29.76F
$$

NYZ052-065-067-241100-
HUDSON VALLEY

CITY           SKY/WX    TMP DP  RH WIND       PRES   REMARKS
WHITE PLAINS   LGT RAIN  56  54  93 CALM      29.73S
LARCHMONT HARB   N/A     57 N/A N/A NE3         N/A
CROTON O-T HUD   N/A     57 N/A N/A MISG        N/A
NEWBURGH       MOCLDY    54  54 100 CALM      29.76R
MONTGOMERY     CLOUDY    54  51  90 N5        29.74R
POUGHKEEPSIE   CLOUDY    53  50  89 CALM      29.74R
ALBANY         CLOUDY    53  50  89 NW3       29.77R
$$

NJZ001-105-106-008-010-013-015-019>022-104-241100-
NEW JERSEY

CITY           SKY/WX    TMP DP  RH WIND       PRES   REMARKS
NEWARK/LIBERTY LGT RAIN  58  53  84 CALM      29.74R
TETERBORO      LGT RAIN  58  52  80 CALM      29.73R
CALDWELL       LGT RAIN  58  54  86 CALM      29.75R
SOMERVILLE     LGT RAIN  56  56 100 CALM      29.71S
LINDEN         LGT RAIN  57  53  88 CALM      29.73S
PERTH AMBOY      N/A     55 N/A N/A N3          N/A
SUSSEX         CLOUDY    53  52  96 CALM      29.75R
ANDOVER          N/A     54  52  93 CALM      29.74S
TRENTON        CLOUDY    56  53  90 N7        29.71F
MILLVILLE      CLOUDY    57  57 100 NE5       29.70R
ATLANTIC CITY  CLOUDY    57  55  93 N7        29.70R
WRIGHTSTOWN    CLOUDY    55  54  95 N6        29.69S
TOMS RIVER     LGT RAIN  56  55  97 NE5       29.72R
BELMAR         CLOUDY    56  54  93 NE6       29.72S
$$

PAZ047>061-062-071-241100-
EASTERN PENNSYLVANIA

CITY           SKY/WX    TMP DP  RH WIND       PRES   REMARKS
PHILADELPHIA   CLOUDY    58  52  80 NE7       29.71F
ALLENTOWN      LGT RAIN  56  53  90 CALM      29.73S
SCRANTON       CLOUDY    53  49  86 E5        29.74S
$$

CTZ002-004>006-009-010-012-RIZ004-006-007-MAZ004-011-015-241100-
SOUTHERN NEW ENGLAND
 IN CT

CITY           SKY/WX    TMP DP  RH WIND       PRES   REMARKS
BRADLEY INTL   CLOUDY    55  52  89 CALM      29.75S
HARTFORD       CLOUDY    56  53  90 NE3       29.74F
DANBURY        PTCLDY    54  52  93 CALM      29.75S
WTRBURY/OXFORD   N/A     55  48  76 E5        29.75F
BRIDGEPORT     LGT RAIN  59  53  80 NE7       29.74S
MERIDEN        MOCLDY    55  53  93 CALM      29.75S
NEW HAVEN      CLOUDY    56  52  86 E3        29.75R
CHESTER        DRIZZLE   55  54  94 CALM      29.76R
GROTON         LGT RAIN  55  53  93 CALM      29.75F
WILIMANTIC     CLOUDY    56  53  90 CALM      29.76F

 IN RI

CITY           SKY/WX    TMP DP  RH WIND       PRES   REMARKS
PROVIDENCE     LGT RAIN  56  55  97 E3        29.77S
BLOCK ISLAND   LGT RAIN  54  53  97 E6        29.76F
WESTERLY       LGT RAIN  56  54  93 NE3       29.76F
 IN MA

CITY           SKY/WX    TMP DP  RH WIND       PRES   REMARKS
BOSTON         CLOUDY    56  55  97 SE5       29.78R
WORCESTER      CLOUDY    58  45  62 N3        29.77F
WESTFIELD      CLOUDY    53  53 100 N7        29.75F
PROVINCETOWN   CLOUDY    54  53  97 CALM      29.80R
NANTUCKET      LGT RAIN  52  48  86 NE8       29.77R
$$

ANZ330-335-338-340-345-350-353-355-241100-
COASTAL MARINE OBSERVATIONS


STATION/POSITION TIME  SKY/WX   TEMP    WIND        PRES    VSBY  WAVE
                                AIR SEA DIR/SP/G                  HT/PER
                 (UTC)          (F)     (DEG/KT/KT) (MB)    (MI)  (FT/S)
NY HARB ENTRANCE 0850            57 58   60/ 10/ 12 1006.1          3/ 7
20 S FIRE ISLAND 0950            55 55   60/ 14/ 16 1005.4          3/ 7
GREAT SOUTH BAY  0930            58 64   80/  8/ 10   N/A
23 SSW MONTAUK P 0850            54 55              1007.4          3/ 7
15 E BARNEGAT LI 0900               57                N/A           3/ 8
HUDSON CANYON    0850            54 54   50/ 16/ 19 1004.7          3/ 7
KINGS POINT      0942            56 58  100/  2/  3 1006.3
EXECUTION ROCKS  0945            58                   N/A
CENTRAL LI SOUND 0915            57      90/  6/  8   N/A           0
EASTERN LI SOUND NOT AVBL
ROBBINS REEF     0942            58      80/  2/  4 1007.0
$$


>>>>>>>>>>>>>>>>>>>>>>>>>>>> KEY <<<<<<<<<<<<<<<<<<<<<<<<<<<
>                                                          <
>     SKY/WX - SKY CONDITION/PRESENT WEATHER               <
>     TMP    - TEMPERATURE IN FAHRENHEIT                   <
>     DP     - DEW POINT IN FAHRENHEIT                     <
>     RH     - RELATIVE HUMIDITY IN PERCENT                <
>     WIND   - DIRECTION (FROM) AND SPEED IN MPH           <
>     PRES   - MEAN SEA LEVEL PRESSURE (INCHES OF HG)      <
>     WCI    - WIND CHILL INDEX                            <
>     VSB    - VISIBILITY IN MILES                         <
>     HX     - HEAT INDEX                                  <
>     TC     - TEMPERATURE IN CELSIUS                      <
>     VRB    - VARIABLE WIND DIRECTION                     <
>                                                          <
>>>>>>>>>>>>>>>>>>>>>>>>>>>> KEY <<<<<<<<<<<<<<<<<<<<<<<<<<<



USA.gov is the U.S. government's official web portal to all federal, state and local government web resources and services.